Lone Rock, WI

7:56 AM CST on December 07, 2016 (GMT -0600)
Tri-County Regional

Weather History for KLNR - April, 2014

Change the Weather History Date:

Wednesday, April 30, 2014

  Actual Average Record
Temperature  
Mean Temperature 44 °F -  
Max Temperature 46 °F 63 °F 89 °F (2013)
Min Temperature 42 °F 41 °F 24 °F (2005)
Degree Days  
Heating Degree Days 21    
Moisture  
Dew Point 42 °F    
Average Humidity 89    
Maximum Humidity 100    
Minimum Humidity 73    
Precipitation  
Precipitation 0.05 in - - ()
Sea Level Pressure  
Sea Level Pressure 29.66 in    
Wind  
Wind Speed 5 mph (SW)    
Max Wind Speed 15 mph    
Max Gust Speed -    
Visibility 7 miles    
Events Rain    
Averages and records for this station are not official NWS values.
T = Trace of Precipitation, MM = Missing Value Source: NWS Daily Summary

Daily Weather History Graph

Daily Weather History Graph

Search for Another Location

Airport or City:

Trip Planner

Search our weather history database for the weather conditions in past years. The results will help you decide how hot, cold, wet, or windy it might be!

Date:

Astronomy

Apr. 30, 2014 Rise Set
Actual Time 5:55 AM CDT 8:01 PM CDT
Civil Twilight 5:24 AM CDT 8:32 PM CDT
Nautical Twilight 4:46 AM CDT 9:10 PM CDT
Astronomical Twilight 4:04 AM CDT 9:52 PM CDT
Moon 6:55 AM CDT (4/30) 9:41 PM CDT (4/30)
Length of Visible Light 15h 07m
Length of Day
14h 05m
New Moon, 2% of the Moon is Illuminated
Apr 30
New Moon
May 6
First Quarter
May 14
Full
May 21
Last Quarter
May 28
New

Hourly Weather History & Observations

Time (CDT) Temp. Windchill Dew Point Humidity Pressure Visibility Wind Dir Wind Speed Gust Speed Precip Events Conditions
12:15 AM 46.0 °F 44.8 °F 44.1 °F 93% 29.61 in 3.0 mi NE 3.5 mph - N/A   Overcast
12:37 AM 46.0 °F 44.8 °F 44.1 °F 93% 29.61 in 2.5 mi North 3.5 mph - N/A   Overcast
12:54 AM 46.4 °F 45.2 °F 44.6 °F 93% 29.61 in 2.5 mi North 3.5 mph - N/A   Overcast
12:56 AM 46.0 °F - 44.1 °F 93% 29.61 in 2.5 mi Calm Calm - N/A   Overcast
1:56 AM 45.0 °F - 45.0 °F 100% 29.61 in 2.0 mi Calm Calm - 0.01 in   Overcast
2:22 AM 45.0 °F - 44.1 °F 97% 29.61 in 4.0 mi Calm Calm - N/A   Overcast
2:30 AM 45.0 °F - 45.0 °F 100% 29.61 in 4.0 mi Calm Calm - N/A   Overcast
2:56 AM 45.0 °F 43.5 °F 44.1 °F 97% 29.60 in 2.0 mi WNW 3.5 mph - N/A   Overcast
3:14 AM 45.0 °F 42.6 °F 44.1 °F 97% 29.61 in 2.0 mi WNW 4.6 mph - 0.01 in Rain Light Rain
3:32 AM 45.0 °F 43.5 °F 44.1 °F 97% 29.61 in 3.0 mi WNW 3.5 mph - 0.01 in Rain Light Rain
3:37 AM 45.0 °F 43.5 °F 44.1 °F 97% 29.61 in 2.5 mi West 3.5 mph - 0.01 in Rain Light Rain
3:56 AM 45.0 °F 43.5 °F 44.1 °F 97% 29.61 in 2.5 mi West 3.5 mph - 0.02 in Rain Light Rain
4:06 AM 45.0 °F 43.5 °F 44.1 °F 97% 29.62 in 4.0 mi West 3.5 mph - 0.00 in Rain Light Rain
4:36 AM 45.0 °F 42.6 °F 44.1 °F 97% 29.62 in 5.0 mi West 4.6 mph - 0.01 in Rain Light Rain
4:56 AM 45.0 °F 42.6 °F 44.1 °F 97% 29.62 in 6.0 mi West 4.6 mph - 0.01 in   Overcast
5:47 AM 44.1 °F 40.8 °F 43.0 °F 96% 29.63 in 6.0 mi West 5.8 mph - 0.00 in   Overcast
5:56 AM 44.1 °F 41.5 °F 43.0 °F 96% 29.63 in 9.0 mi West 4.6 mph - 0.00 in   Overcast
6:56 AM 44.1 °F 42.5 °F 43.0 °F 96% 29.65 in 8.0 mi SW 3.5 mph - 0.00 in   Overcast
7:56 AM 44.1 °F 41.5 °F 43.0 °F 96% 29.65 in 4.0 mi SSW 4.6 mph - 0.00 in   Overcast
8:53 AM 44.6 °F 41.4 °F 42.8 °F 93% 29.66 in 10.0 mi SW 5.8 mph - 0.00 in   Overcast
8:56 AM 45.0 °F 41.2 °F 43.0 °F 93% 29.66 in 10.0 mi SSW 6.9 mph - 0.00 in   Overcast
9:56 AM 43.0 °F 37.7 °F 41.0 °F 93% 29.67 in 10.0 mi South 9.2 mph - N/A   Overcast
10:20 AM 43.0 °F 38.8 °F 41.0 °F 93% 29.68 in 10.0 mi South 6.9 mph - N/A   Overcast
10:33 AM 44.1 °F 39.5 °F 41.0 °F 89% 29.68 in 10.0 mi SW 8.1 mph - N/A   Overcast
10:56 AM 44.1 °F 39.0 °F 41.0 °F 89% 29.68 in 10.0 mi South 9.2 mph - N/A   Overcast
11:33 AM 44.1 °F 38.1 °F 41.0 °F 89% 29.69 in 10.0 mi South 11.5 mph - N/A   Overcast
11:56 AM 45.0 °F 38.9 °F 41.0 °F 86% 29.69 in 10.0 mi South 12.7 mph - N/A   Overcast
12:52 PM 46.4 °F 41.9 °F 39.2 °F 76% 29.70 in 10.0 mi SSW 9.2 mph - N/A   Overcast
12:56 PM 46.0 °F 41.9 °F 41.0 °F 83% 29.70 in 10.0 mi South 8.1 mph - N/A   Overcast
1:43 PM 46.9 °F - 41.0 °F 80% 29.70 in 10.0 mi South 11.5 mph - 0.00 in   Overcast
1:56 PM 46.9 °F - 41.0 °F 80% 29.69 in 10.0 mi South 9.2 mph - 0.00 in   Overcast
2:36 PM 46.9 °F - 39.9 °F 77% 29.70 in 10.0 mi South 15.0 mph - N/A   Overcast
2:56 PM 46.0 °F 40.6 °F 41.0 °F 83% 29.71 in 10.0 mi SSW 11.5 mph - N/A   Overcast
3:56 PM 46.0 °F 41.4 °F 39.9 °F 79% 29.71 in 10.0 mi SW 9.2 mph - 0.01 in Rain Light Rain
4:05 PM 46.0 °F 41.9 °F 39.9 °F 79% 29.71 in 10.0 mi SW 8.1 mph - 0.00 in   Overcast
4:26 PM 46.0 °F 41.4 °F 37.9 °F 73% 29.71 in 10.0 mi SSW 9.2 mph - 0.00 in   Overcast
4:56 PM 45.0 °F 38.9 °F 37.9 °F 76% 29.71 in 10.0 mi SW 12.7 mph - 0.00 in   Overcast
5:23 PM 45.0 °F 39.7 °F 37.0 °F 74% 29.72 in 10.0 mi SW 10.4 mph - N/A   Overcast
5:34 PM 45.0 °F 39.3 °F 37.9 °F 76% 29.72 in 10.0 mi SW 11.5 mph - N/A   Overcast
5:56 PM 45.0 °F 40.1 °F 37.9 °F 76% 29.71 in 10.0 mi SSW 9.2 mph - N/A   Overcast
6:56 PM 44.1 °F 39.5 °F 37.0 °F 76% 29.71 in 10.0 mi SSW 8.1 mph - N/A   Overcast
9:56 PM 42.1 °F 37.7 °F 37.0 °F 82% 29.72 in 10.0 mi SW 6.9 mph - N/A   Overcast
11:56 PM 42.1 °F 38.4 °F 37.0 °F 82% 29.69 in 10.0 mi SSW 5.8 mph - N/A   Overcast